Probability
0 0 1 2 2 2 3 3 2 1 1 2 2 1 0 0 0 0 0 0 0 0 0 1 1 1 0 0 0 0 0 0 0 0 0 0 0 0 0 0 0 0 0
0 0 1 1 1 2 3 3 2 0 1 2 2 1 0 1 1 0 0 0 0 0 0 0 0 0 0 0 0 0 0 0 0 0 0 0 0 0 0 0 0 0 0
0 0 0 0 0 1 2 2 2 1 0 1 1 1 1 2 2 1 0 0 0 0 0 0 0 0 0 0 0 0 0 0 0 0 0 0 0 0 0 0 0 0 0
0 0 0 0 0 0 1 1 2 2 1 0 0 0 1 2 3 2 1 0 0 0 0 0 0 0 0 0 0 0 0 0 0 0 0 0 0 0 0 0 0 0 0
0 0 0 0 0 0 0 1 2 2 1 0 0 0 1 2 3 3 2 1 0 0 0 0 0 0 0 0 0 0 0 0 0 0 0 0 0 0 0 0 0 0 0
0 0 0 0 0 0 0 0 1 1 0 0 0 0 0 1 3 3 3 2 0 0 0 0 0 0 0 0 0 0 0 0 0 0 0 0 0 0 0 0 0 0 0
0 0 0 0 0 0 0 0 0 0 0 0 0 0 0 1 2 3 3 1 0 0 0 0 0 0 0 0 0 0 0 0 0 0 0 0 0 0 0 0 0 0 0
0 0 0 0 0 0 0 0 0 0 0 0 0 0 0 0 1 3 2 1 0 0 0 1 1 1 0 0 0 0 0 0 0 0 0 0 0 0 0 0 0 0 0
0 1 1 1 0 0 0 0 0 0 0 0 0 0 0 0 1 2 2 1 0 1 1 1 1 1 1 0 0 0 0 0 0 0 0 0 0 0 0 0 0 0 1
0 1 2 2 1 0 0 0 0 0 0 0 0 0 0 0 0 1 1 0 0 1 1 1 1 1 1 0 0 0 0 0 0 0 0 0 0 0 0 0 0 1 2
0 0 1 1 2 1 0 0 0 0 0 0 0 0 0 1 1 0 0 0 0 0 0 0 0 0 0 0 0 0 0 0 0 0 0 0 0 0 0 0 0 1 2
0 0 0 1 2 2 1 0 0 1 1 0 0 0 1 2 2 1 0 0 0 0 0 0 0 0 0 0 0 0 0 0 0 0 0 0 0 0 0 0 0 0 1
0 0 0 0 1 2 2 1 0 1 2 1 1 1 2 3 2 1 0 0 0 0 0 0 0 0 0 0 0 0 0 0 0 0 0 0 0 0 0 0 0 0 0
0 0 0 0 0 1 2 1 0 1 2 2 2 2 3 3 2 1 0 0 0 0 0 0 1 0 0 0 0 0 0 0 0 0 0 0 0 0 0 0 0 0 0
0 0 0 0 0 0 1 1 0 0 1 1 2 3 3 3 2 1 0 0 0 0 0 0 0 0 0 0 0 0 0 0 0 0 0 0 0 0 0 0 0 0 0
0 0 0 0 0 0 0 0 0 0 0 0 2 3 3 3 2 1 0 0 0 0 0 0 1 1 0 0 0 0 0 0 0 0 0 0 0 0 0 0 0 0 0
0 0 0 0 0 0 0 0 0 0 0 1 2 3 3 2 2 1 0 0 0 0 0 1 2 2 1 0 0 0 0 0 0 0 0 0 0 0 0 0 1 0 0
0 0 0 0 0 0 0 0 0 0 0 1 3 3 1 1 1 0 0 0 0 0 0 1 2 2 1 0 0 0 0 0 0 0 0 0 0 0 0 0 0 0 0
0 0 0 0 0 0 0 0 0 0 1 2 3 2 1 0 0 0 0 0 0 0 0 1 1 2 1 0 0 0 0 0 0 0 0 0 0 0 0 0 0 0 0
0 0 0 0 0 0 0 0 0 0 1 2 3 2 1 0 0 0 0 0 0 0 0 0 1 1 1 0 0 0 0 0 0 0 0 0 0 0 0 0 0 0 0
0 0 0 0 0 0 0 0 0 0 1 2 2 1 0 0 0 0 0 0 0 0 0 0 0 0 0 0 0 0 0 0 0 0 0 0 0 0 0 0 0 0 0
0 0 0 0 0 0 0 0 0 0 0 1 1 0 0 0 0 0 0 0 0 0 0 0 0 0 0 0 0 0 0 0 0 0 0 0 0 0 0 0 0 0 0
0 0 0 0 0 0 0 0 0 0 0 0 0 0 0 0 0 0 0 0 0 0 0 0 0 0 0 0 0 0 0 0 0 0 0 0 0 0 0 0 0 0 0
0 0 0 0 0 0 0 0 0 0 0 0 0 0 0 0 0 0 0 0 0 0 0 0 0 0 0 0 0 0 0 0 0 0 0 0 0 0 0 0 0 0 0
0 0 0 0 0 0 0 0 0 0 0 0 0 0 0 0 0 0 0 0 0 0 0 0 0 0 0 0 0 0 0 0 0 0 0 0 0 0 0 0 0 0 0
0 0 0 0 0 0 0 0 0 0 0 0 0 0 0 0 0 0 0 0 0 0 0 0 0 0 0 0 0 0 0 0 0 0 0 0 0 0 0 0 0 0 0
Wind_Speed
5 7 6 6 7 8 9 9 9 9 9 9 9 9 8 8 8 8 8 7 7 8 9 9 10 10 10 10 9 9 9 9 9 9 9 8 8 8 8 7 5 6 8
6 7 7 6 8 8 9 9 9 9 9 9 8 8 8 8 8 8 7 7 7 8 8 9 9 10 10 10 9 9 9 9 9 8 7 7 8 8 8 7 7 6 7
6 7 8 6 8 9 9 9 9 9 9 8 8 8 8 8 8 7 7 7 7 7 8 8 9 9 9 9 9 9 9 9 8 6 3 5 6 8 7 7 7 7 7
6 7 7 7 8 8 9 8 8 8 8 8 7 7 7 7 7 7 7 6 6 7 8 8 8 8 8 8 8 8 8 8 7 4 3 5 5 7 7 7 7 6 6
6 6 7 7 8 8 8 8 8 7 7 7 7 7 7 7 7 7 7 6 6 7 7 7 8 8 7 7 7 7 7 7 5 2 4 4 4 6 6 7 7 6 6
6 6 7 6 7 8 8 8 7 7 7 7 7 7 7 7 7 7 7 6 6 6 6 6 7 7 6 6 6 7 6 5 2 3 4 3 4 6 6 6 6 6 6
5 5 6 6 6 7 7 7 7 7 7 6 6 6 6 7 6 6 6 6 5 5 5 6 6 6 6 6 6 6 6 4 3 3 3 3 4 5 5 5 5 5 5
5 5 5 5 4 5 5 6 6 6 6 6 5 5 6 6 6 5 5 5 5 5 5 5 6 5 5 5 5 5 5 3 2 3 3 3 5 4 4 4 4 4 5
4 5 5 5 5 4 4 4 4 5 5 5 5 5 6 6 6 5 5 5 5 4 4 5 5 5 4 4 5 5 4 4 2 2 2 3 5 4 4 4 4 4 4
4 4 4 5 5 5 5 4 4 4 4 5 5 5 5 5 5 5 4 4 4 4 4 4 4 4 4 4 4 4 3 2 1 1 1 3 4 4 3 3 3 3 3
4 4 4 4 4 4 4 4 4 4 4 4 4 5 4 4 4 4 4 4 4 3 3 4 4 4 3 3 3 2 1 1 1 1 1 3 3 3 3 3 3 3 3
6 5 5 5 4 4 3 3 3 3 4 3 3 4 3 3 2 2 5 5 4 3 3 3 3 3 1 1 2 1 0 1 0 1 2 3 3 3 3 3 3 3 3
6 5 5 5 5 4 3 3 2 2 2 3 4 4 3 3 2 2 2 3 2 2 2 2 2 1 0 0 0 0 0 1 0 0 2 3 4 4 4 4 3 3 3
6 6 5 5 5 5 4 3 3 3 2 3 3 4 3 2 2 2 2 2 2 1 1 1 1 1 1 1 1 1 1 1 1 1 1 4 4 4 4 4 4 4 4
7 6 6 6 6 5 5 4 4 3 3 3 3 4 4 3 3 2 2 2 2 1 1 1 1 1 1 1 1 2 2 2 2 2 0 2 4 4 4 4 5 5 5
7 7 6 7 6 6 5 4 4 4 3 4 4 4 5 3 3 3 2 2 1 1 1 1 1 1 1 1 2 2 2 2 2 2 2 1 2 4 4 4 5 5 5
7 7 7 7 7 7 6 5 4 4 4 4 4 4 5 4 3 3 2 2 2 1 1 1 1 1 1 2 2 2 2 2 2 3 3 2 2 2 3 4 5 6 5
6 7 7 5 7 7 6 5 4 4 4 4 3 4 5 4 4 3 3 2 2 2 2 2 2 2 2 2 2 2 2 2 3 3 3 3 2 2 2 4 6 6 6
6 6 7 7 7 6 6 5 4 4 4 4 3 3 4 5 5 4 3 2 3 2 2 2 2 2 2 2 2 2 2 2 2 3 3 3 3 3 3 3 5 6 6
5 6 6 7 7 6 5 4 3 4 3 3 3 3 4 4 5 4 3 3 3 2 2 2 2 2 2 2 2 2 3 3 3 3 4 3 3 3 4 4 3 3 5
4 5 6 7 7 6 5 5 4 4 4 3 3 4 5 4 4 4 3 4 3 3 3 3 2 2 2 1 2 2 2 3 3 3 3 3 3 3 4 4 3 3 3
5 5 6 6 6 6 5 4 3 3 3 3 3 4 5 5 4 4 4 4 4 3 4 4 3 2 1 2 2 2 2 3 3 3 3 3 3 3 3 3 3 4 4
4 5 5 6 6 6 6 4 3 3 2 3 3 3 4 5 5 4 5 4 4 4 4 4 4 4 3 2 2 2 3 3 2 2 3 3 3 3 3 3 4 5 5
4 3 4 5 5 5 6 6 7 5 5 4 3 3 4 5 5 5 5 5 4 4 4 4 5 4 4 3 2 3 3 3 3 3 2 3 3 4 4 3 4 5 5
2 2 3 3 4 4 5 7 7 6 4 3 3 4 4 4 5 5 5 5 5 5 5 5 5 5 4 4 3 2 3 3 4 4 4 3 3 3 4 4 4 4 5
1 1 2 3 3 3 4 6 7 7 6 5 5 5 4 4 4 5 5 5 5 5 5 5 5 6 5 5 4 4 3 3 3 4 5 5 5 4 4 4 4 4 4
Wind_Direction
167 164 166 171 162 156 152 145 141 133 128 125 122 119 115 111 106 99 94 90 88 85 84 81 78 76 74 72 71 68 67 67 63 58 58 60 61 60 58 50 51 69 65
159 163 162 173 161 156 150 146 141 135 132 129 126 123 119 114 108 103 98 93 91 89 86 84 80 76 72 70 69 66 65 64 62 57 54 66 62 58 57 51 45 60 67
155 159 160 150 142 145 142 140 138 136 134 133 128 124 121 118 114 110 104 97 95 92 87 84 83 78 73 69 69 67 64 62 60 51 47 69 68 61 58 57 56 60 63
155 157 157 140 137 138 140 138 137 138 137 137 132 126 122 120 118 113 107 99 95 93 90 85 83 80 76 69 66 65 62 58 50 25 61 61 65 62 55 54 55 56 59
154 158 144 137 138 137 137 137 139 141 143 143 139 133 128 123 121 116 110 102 95 93 91 86 83 79 76 71 66 65 61 53 38 34 63 62 65 61 53 51 52 54 54
152 156 146 140 143 143 141 141 141 140 141 143 142 138 131 124 121 118 112 105 97 92 92 90 85 79 75 73 68 63 59 45 17 55 53 50 57 60 52 50 50 51 51
155 156 153 141 141 144 149 151 149 146 145 140 143 142 135 129 123 119 117 112 104 95 93 91 87 82 76 72 69 62 52 23 24 47 43 44 46 44 46 48 48 49 49
159 160 158 145 141 143 146 153 154 151 149 147 142 142 138 133 125 118 118 116 109 99 94 91 86 82 78 71 70 60 46 9 35 46 42 50 39 33 39 39 39 40 39
164 166 167 167 165 151 144 145 145 147 147 144 138 134 133 129 122 115 112 114 112 107 99 93 89 83 79 71 67 58 41 358 359 45 35 48 31 23 31 28 25 25 24
172 177 176 175 178 176 166 141 133 135 138 135 125 111 115 122 118 107 117 113 116 113 104 98 95 86 79 73 67 58 30 298 35 36 35 46 18 9 16 19 15 12 10
190 191 188 187 187 182 178 160 157 146 133 135 135 121 142 160 149 132 107 97 108 108 104 101 100 91 84 84 70 47 305 333 24 14 23 23 359 355 2 4 3 2 6
204 203 199 197 192 187 180 177 178 172 159 165 163 162 168 160 143 135 102 92 95 98 104 97 100 111 139 128 106 203 242 332 301 19 30 6 346 341 339 343 337 339 344
211 204 204 203 197 194 189 183 175 173 167 169 170 173 166 158 150 149 138 131 141 148 151 137 149 147 267 283 232 230 282 286 276 356 24 354 334 330 331 322 325 321 320
217 211 205 205 202 200 197 191 182 181 178 176 175 179 176 165 166 164 166 164 176 178 179 182 184 170 216 250 255 244 240 272 285 306 11 349 328 323 320 319 309 311 307
221 216 209 206 204 199 196 197 191 190 190 186 186 186 184 175 178 180 178 187 197 190 195 204 205 196 211 244 262 261 252 261 268 260 265 358 327 319 312 310 310 303 296
226 221 211 206 206 203 200 196 195 194 191 193 192 190 189 189 186 180 183 187 195 203 210 218 220 215 220 233 251 262 260 255 258 259 269 283 332 322 316 308 305 302 295
225 221 214 208 206 205 204 200 196 193 195 196 193 192 192 193 193 187 187 191 200 201 198 205 207 219 225 229 242 252 256 259 262 264 268 274 284 320 312 308 301 301 301
224 217 213 207 206 205 203 197 193 197 201 198 191 190 191 188 192 191 192 198 201 198 196 196 204 214 228 238 245 248 246 245 248 260 256 261 271 278 295 308 303 300 295
225 219 212 207 204 201 199 194 192 195 202 198 190 190 191 189 189 195 195 190 193 195 194 199 219 228 234 246 257 260 252 248 254 254 248 256 263 268 274 289 296 302 298
224 220 212 206 202 193 188 187 186 188 193 193 187 189 188 189 188 190 189 188 188 190 193 199 215 226 240 250 260 263 259 249 249 250 252 249 251 262 267 273 271 286 291
220 216 212 205 199 190 185 190 192 195 193 191 190 186 189 186 185 191 189 184 189 197 202 200 205 212 229 234 248 264 255 241 243 248 256 254 252 262 264 261 270 281 273
218 214 212 210 203 198 197 193 195 194 197 194 191 191 192 188 186 193 194 191 190 194 197 197 201 210 218 220 241 258 266 237 229 241 245 257 261 264 262 262 269 273 278
225 220 212 207 206 202 196 183 172 179 183 192 195 196 194 193 190 194 199 195 194 197 202 202 206 212 214 217 236 245 257 268 288 225 237 251 261 265 264 265 265 271 273
234 224 216 205 201 199 194 196 196 201 206 205 200 201 194 194 193 194 200 200 199 202 207 206 211 218 216 216 225 251 268 284 273 276 238 245 265 266 263 263 261 264 264
239 219 211 198 198 195 200 204 208 213 215 205 199 200 202 195 196 196 199 201 204 209 210 208 207 213 218 219 219 228 240 248 257 261 271 272 272 263 265 265 261 258 258
264 214 204 192 195 196 206 207 209 211 208 204 205 205 206 201 196 197 201 205 209 211 211 211 209 211 216 221 224 227 230 229 233 243 259 273 280 278 273 263 257 258 259